Year,Month,Day,Hour,Minute,Value (Times are PST for temperature in C)
2017,10,29,00,00,7.40
2017,10,29,00,01,7.50
2017,10,29,00,02,7.50
2017,10,29,00,03,7.60
2017,10,29,00,04,7.60
2017,10,29,00,05,7.60
2017,10,29,00,06,7.60
2017,10,29,00,07,7.60
2017,10,29,00,08,7.70
2017,10,29,00,09,7.70
2017,10,29,00,10,7.70
2017,10,29,00,11,7.80
2017,10,29,00,12,7.80
2017,10,29,00,13,7.80
2017,10,29,00,14,7.80
2017,10,29,00,15,7.80
2017,10,29,00,16,7.80
2017,10,29,00,17,7.80
2017,10,29,00,18,7.80
2017,10,29,00,19,7.80
2017,10,29,00,20,7.80
2017,10,29,00,21,7.80
2017,10,29,00,22,7.80
2017,10,29,00,23,7.80
2017,10,29,00,24,7.80
2017,10,29,00,25,7.80
2017,10,29,00,26,7.90
2017,10,29,00,27,7.90
2017,10,29,00,28,7.90
2017,10,29,00,29,7.90
2017,10,29,00,30,7.90
2017,10,29,00,31,7.90
2017,10,29,00,32,7.90
2017,10,29,00,33,7.90
2017,10,29,00,34,7.90
2017,10,29,00,35,7.90
2017,10,29,00,36,7.80
2017,10,29,00,37,7.80
2017,10,29,00,38,7.80
2017,10,29,00,39,7.70
2017,10,29,00,40,7.70
2017,10,29,00,41,7.60
2017,10,29,00,42,7.60
2017,10,29,00,43,7.50
2017,10,29,00,44,7.50
2017,10,29,00,45,7.40
2017,10,29,00,46,7.40
2017,10,29,00,47,7.40
2017,10,29,00,48,7.40
2017,10,29,00,49,7.30
2017,10,29,00,50,7.30
2017,10,29,00,51,7.30
2017,10,29,00,52,7.30
2017,10,29,00,53,7.30
2017,10,29,00,54,7.20
2017,10,29,00,55,7.20
2017,10,29,00,56,7.20
2017,10,29,00,57,7.20
2017,10,29,00,58,7.20
2017,10,29,00,59,7.30
2017,10,29,01,00,7.30
2017,10,29,01,01,7.30
2017,10,29,01,02,7.40
2017,10,29,01,03,7.40
2017,10,29,01,04,7.40
2017,10,29,01,05,7.40
2017,10,29,01,06,7.50
2017,10,29,01,07,7.50
2017,10,29,01,08,7.50
2017,10,29,01,09,7.50
2017,10,29,01,10,7.50
2017,10,29,01,11,7.50
2017,10,29,01,12,7.50
2017,10,29,01,13,7.50
2017,10,29,01,14,7.50
2017,10,29,01,15,7.50
2017,10,29,01,16,7.50
2017,10,29,01,17,7.50
2017,10,29,01,18,7.50
2017,10,29,01,19,7.50
2017,10,29,01,20,7.50
2017,10,29,01,21,7.40
2017,10,29,01,22,7.40
2017,10,29,01,23,7.40
2017,10,29,01,24,7.40
2017,10,29,01,25,7.40
2017,10,29,01,26,7.40
2017,10,29,01,27,7.40
2017,10,29,01,28,7.40
2017,10,29,01,29,7.40
2017,10,29,01,30,7.40
2017,10,29,01,31,7.40
2017,10,29,01,32,7.40
2017,10,29,01,33,7.40
2017,10,29,01,34,7.30
2017,10,29,01,35,7.30
2017,10,29,01,36,7.20
2017,10,29,01,37,7.20
2017,10,29,01,38,7.10
2017,10,29,01,39,7.10
2017,10,29,01,40,7.00
2017,10,29,01,41,6.90
2017,10,29,01,42,6.90
2017,10,29,01,43,6.80
2017,10,29,01,44,6.80
2017,10,29,01,45,6.70
2017,10,29,01,46,6.70
2017,10,29,01,47,6.60
2017,10,29,01,48,6.60
2017,10,29,01,49,6.60
2017,10,29,01,50,6.60
2017,10,29,01,51,6.60
2017,10,29,01,52,6.60
2017,10,29,01,53,6.60
2017,10,29,01,54,6.60
2017,10,29,01,55,6.60
2017,10,29,01,56,6.70
2017,10,29,01,57,6.70
2017,10,29,01,58,6.70
2017,10,29,01,59,6.70
2017,10,29,02,00,6.70
2017,10,29,02,01,6.70
2017,10,29,02,02,6.70
2017,10,29,02,03,6.80
2017,10,29,02,04,6.80
2017,10,29,02,05,6.80
2017,10,29,02,06,6.80
2017,10,29,02,07,6.80
2017,10,29,02,08,6.90
2017,10,29,02,09,6.90
2017,10,29,02,10,6.90
2017,10,29,02,11,6.90
2017,10,29,02,12,6.90
2017,10,29,02,13,7.00
2017,10,29,02,14,7.00
2017,10,29,02,15,7.00
2017,10,29,02,16,7.00
2017,10,29,02,17,7.10
2017,10,29,02,18,7.10
2017,10,29,02,19,7.10
2017,10,29,02,20,7.20
2017,10,29,02,21,7.20
2017,10,29,02,22,7.20
2017,10,29,02,23,7.20
2017,10,29,02,24,7.20
2017,10,29,02,25,7.30
2017,10,29,02,26,7.30
2017,10,29,02,27,7.30
2017,10,29,02,28,7.30
2017,10,29,02,29,7.40
2017,10,29,02,30,7.40
2017,10,29,02,31,7.40
2017,10,29,02,32,7.40
2017,10,29,02,33,7.30
2017,10,29,02,34,7.30
2017,10,29,02,35,7.20
2017,10,29,02,36,7.20
2017,10,29,02,37,7.20
2017,10,29,02,38,7.10
2017,10,29,02,39,7.00
2017,10,29,02,40,7.00
2017,10,29,02,41,6.90
2017,10,29,02,42,6.90
2017,10,29,02,43,6.90
2017,10,29,02,44,6.90
2017,10,29,02,45,6.90
2017,10,29,02,46,6.90
2017,10,29,02,47,6.90
2017,10,29,02,48,6.90
2017,10,29,02,49,6.90
2017,10,29,02,50,6.90
2017,10,29,02,51,6.90
2017,10,29,02,52,6.90
2017,10,29,02,53,6.90
2017,10,29,02,54,6.90
2017,10,29,02,55,6.90
2017,10,29,02,56,6.80
2017,10,29,02,57,6.80
2017,10,29,02,58,6.80
2017,10,29,02,59,6.80
2017,10,29,03,00,6.70
2017,10,29,03,01,6.70
2017,10,29,03,02,6.60
2017,10,29,03,03,6.60
2017,10,29,03,04,6.60
2017,10,29,03,05,6.60
2017,10,29,03,06,6.60
2017,10,29,03,07,6.60
2017,10,29,03,08,6.60
2017,10,29,03,09,6.70
2017,10,29,03,10,6.70
2017,10,29,03,11,6.70
2017,10,29,03,12,6.70
2017,10,29,03,13,6.60
2017,10,29,03,14,6.60
2017,10,29,03,15,6.50
2017,10,29,03,16,6.50
2017,10,29,03,17,6.40
2017,10,29,03,18,6.40
2017,10,29,03,19,6.40
2017,10,29,03,20,6.30
2017,10,29,03,21,6.30
2017,10,29,03,22,6.30
2017,10,29,03,23,6.30
2017,10,29,03,24,6.30
2017,10,29,03,25,6.30
2017,10,29,03,26,6.30
2017,10,29,03,27,6.30
2017,10,29,03,28,6.30
2017,10,29,03,29,6.40
2017,10,29,03,30,6.40
2017,10,29,03,31,6.50
2017,10,29,03,32,6.50
2017,10,29,03,33,6.60
2017,10,29,03,34,6.60
2017,10,29,03,35,6.70
2017,10,29,03,36,6.70
2017,10,29,03,37,6.80
2017,10,29,03,38,6.80
2017,10,29,03,39,6.90
2017,10,29,03,40,6.90
2017,10,29,03,41,7.00
2017,10,29,03,42,7.00
2017,10,29,03,43,7.10
2017,10,29,03,44,7.10
2017,10,29,03,45,7.10
2017,10,29,03,46,7.20
2017,10,29,03,47,7.10
2017,10,29,03,48,7.10
2017,10,29,03,49,7.00
2017,10,29,03,50,6.90
2017,10,29,03,51,6.80
2017,10,29,03,52,6.80
2017,10,29,03,53,6.70
2017,10,29,03,54,6.60
2017,10,29,03,55,6.60
2017,10,29,03,56,6.50
2017,10,29,03,57,6.50
2017,10,29,03,58,6.40
2017,10,29,03,59,6.40
2017,10,29,04,00,6.30
2017,10,29,04,01,6.30
2017,10,29,04,02,6.30
2017,10,29,04,03,6.30
2017,10,29,04,04,6.40
2017,10,29,04,05,6.50
2017,10,29,04,06,6.50
2017,10,29,04,07,6.60
2017,10,29,04,08,6.60
2017,10,29,04,09,6.60
2017,10,29,04,10,6.60
2017,10,29,04,11,6.60
2017,10,29,04,12,6.70
2017,10,29,04,13,6.80
2017,10,29,04,14,6.80
2017,10,29,04,15,6.90
2017,10,29,04,16,6.90
2017,10,29,04,17,7.00
2017,10,29,04,18,7.00
2017,10,29,04,19,7.10
2017,10,29,04,20,7.10
2017,10,29,04,21,7.10
2017,10,29,04,22,7.20
2017,10,29,04,23,7.20
2017,10,29,04,24,7.20
2017,10,29,04,25,7.20
2017,10,29,04,26,7.20
2017,10,29,04,27,7.30
2017,10,29,04,28,7.30
2017,10,29,04,29,7.40
2017,10,29,04,30,7.50
2017,10,29,04,31,7.50
2017,10,29,04,32,7.60
2017,10,29,04,33,7.70
2017,10,29,04,34,7.80
2017,10,29,04,35,7.70
2017,10,29,04,36,7.70
2017,10,29,04,37,7.70
2017,10,29,04,38,7.70
2017,10,29,04,39,7.70
2017,10,29,04,40,7.50
2017,10,29,04,41,7.30
2017,10,29,04,42,7.10
2017,10,29,04,43,7.00
2017,10,29,04,44,7.00
2017,10,29,04,45,7.10
2017,10,29,04,46,7.20
2017,10,29,04,47,7.20
2017,10,29,04,48,7.30
2017,10,29,04,49,7.40
2017,10,29,04,50,7.40
2017,10,29,04,51,7.40
2017,10,29,04,52,7.40
2017,10,29,04,53,7.30
2017,10,29,04,54,7.30
2017,10,29,04,55,7.20
2017,10,29,04,56,7.20
2017,10,29,04,57,7.10
2017,10,29,04,58,7.00
2017,10,29,04,59,6.90
2017,10,29,05,00,6.70
2017,10,29,05,01,6.60
2017,10,29,05,02,6.40
2017,10,29,05,03,6.30
2017,10,29,05,04,6.10
2017,10,29,05,05,6.00
2017,10,29,05,06,5.90
2017,10,29,05,07,5.70
2017,10,29,05,08,5.70
2017,10,29,05,09,5.60
2017,10,29,05,10,5.50
2017,10,29,05,11,5.50
2017,10,29,05,12,5.40
2017,10,29,05,13,5.40
2017,10,29,05,14,5.40
2017,10,29,05,15,5.40
2017,10,29,05,16,5.40
2017,10,29,05,17,5.40
2017,10,29,05,18,5.50
2017,10,29,05,19,5.50
2017,10,29,05,20,5.60
2017,10,29,05,21,5.70
2017,10,29,05,22,5.70
2017,10,29,05,23,5.80
2017,10,29,05,24,5.80
2017,10,29,05,25,5.90
2017,10,29,05,26,5.90
2017,10,29,05,27,5.90
2017,10,29,05,28,6.00
2017,10,29,05,29,6.00
2017,10,29,05,30,6.10
2017,10,29,05,31,6.20
2017,10,29,05,32,6.20
2017,10,29,05,33,6.30
2017,10,29,05,34,6.40
2017,10,29,05,35,6.40
2017,10,29,05,36,6.50
2017,10,29,05,37,6.60
2017,10,29,05,38,6.60
2017,10,29,05,39,6.70
2017,10,29,05,40,6.70
2017,10,29,05,41,6.80
2017,10,29,05,42,6.90
2017,10,29,05,43,6.90
2017,10,29,05,44,6.90
2017,10,29,05,45,7.00
2017,10,29,05,46,7.00
2017,10,29,05,47,7.10
2017,10,29,05,48,7.10
2017,10,29,05,49,7.10
2017,10,29,05,50,7.20
2017,10,29,05,51,7.20
2017,10,29,05,52,7.20
2017,10,29,05,53,7.20
2017,10,29,05,54,7.20
2017,10,29,05,55,7.20
2017,10,29,05,56,7.20
2017,10,29,05,57,7.20
2017,10,29,05,58,7.20
2017,10,29,05,59,7.20
2017,10,29,06,00,7.20
2017,10,29,06,01,7.20
2017,10,29,06,02,7.20
2017,10,29,06,03,7.30
2017,10,29,06,04,7.30
2017,10,29,06,05,7.30
2017,10,29,06,06,7.30
2017,10,29,06,07,7.30
2017,10,29,06,08,7.30
2017,10,29,06,09,7.30
2017,10,29,06,10,7.30
2017,10,29,06,11,7.30
2017,10,29,06,12,7.30
2017,10,29,06,13,7.20
2017,10,29,06,14,7.20
2017,10,29,06,15,7.20
2017,10,29,06,16,7.10
2017,10,29,06,17,7.00
2017,10,29,06,18,7.00
2017,10,29,06,19,6.90
2017,10,29,06,20,6.80
2017,10,29,06,21,6.80
2017,10,29,06,22,6.70
2017,10,29,06,23,6.70
2017,10,29,06,24,6.60
2017,10,29,06,25,6.60
2017,10,29,06,26,6.60
2017,10,29,06,27,6.50
2017,10,29,06,28,6.50
2017,10,29,06,29,6.40
2017,10,29,06,30,6.40
2017,10,29,06,31,6.40
2017,10,29,06,32,6.30
2017,10,29,06,33,6.30
2017,10,29,06,34,6.30
2017,10,29,06,35,6.30
2017,10,29,06,36,6.30
2017,10,29,06,37,6.30
2017,10,29,06,38,6.30
2017,10,29,06,39,6.40
2017,10,29,06,40,6.40
2017,10,29,06,41,6.40
2017,10,29,06,42,6.50
2017,10,29,06,43,6.50
2017,10,29,06,44,6.60
2017,10,29,06,45,6.60
2017,10,29,06,46,6.60
2017,10,29,06,47,6.70
2017,10,29,06,48,6.70
2017,10,29,06,49,6.80
2017,10,29,06,50,6.80
2017,10,29,06,51,6.80
2017,10,29,06,52,6.80
2017,10,29,06,53,6.80
2017,10,29,06,54,6.80
2017,10,29,06,55,6.80
2017,10,29,06,56,6.90
2017,10,29,06,57,6.90
2017,10,29,06,58,6.90
2017,10,29,06,59,6.90
2017,10,29,07,00,6.90
2017,10,29,07,01,7.00
2017,10,29,07,02,7.00
2017,10,29,07,03,7.00
2017,10,29,07,04,7.00
2017,10,29,07,05,7.10
2017,10,29,07,06,7.00
2017,10,29,07,07,7.00
2017,10,29,07,08,7.00
2017,10,29,07,09,7.00
2017,10,29,07,10,7.10
2017,10,29,07,11,7.10
2017,10,29,07,12,7.20
2017,10,29,07,13,7.20
2017,10,29,07,14,7.20
2017,10,29,07,15,7.30
2017,10,29,07,16,7.40
2017,10,29,07,17,7.40
2017,10,29,07,18,7.50
2017,10,29,07,19,7.50
2017,10,29,07,20,7.60
2017,10,29,07,21,7.60
2017,10,29,07,22,7.70
2017,10,29,07,23,7.70
2017,10,29,07,24,7.70
2017,10,29,07,25,7.70
2017,10,29,07,26,7.70
2017,10,29,07,27,7.70
2017,10,29,07,28,7.70
2017,10,29,07,29,7.70
2017,10,29,07,30,7.70
2017,10,29,07,31,7.70
2017,10,29,07,32,7.70
2017,10,29,07,33,7.70
2017,10,29,07,34,7.70
2017,10,29,07,35,7.70
2017,10,29,07,36,7.80
2017,10,29,07,37,7.80
2017,10,29,07,38,7.80
2017,10,29,07,39,7.80
2017,10,29,07,40,7.70
2017,10,29,07,41,7.50
2017,10,29,07,42,7.20
2017,10,29,07,43,6.90
2017,10,29,07,44,6.60
2017,10,29,07,45,6.20
2017,10,29,07,46,5.90
2017,10,29,07,47,5.70
2017,10,29,07,48,5.40
2017,10,29,07,49,5.20
2017,10,29,07,50,5.00
2017,10,29,07,51,4.90
2017,10,29,07,52,4.70
2017,10,29,07,53,4.70
2017,10,29,07,54,4.70
2017,10,29,07,55,4.70
2017,10,29,07,56,4.80
2017,10,29,07,57,5.00
2017,10,29,07,58,5.20
2017,10,29,07,59,5.30
2017,10,29,08,00,5.40
2017,10,29,08,01,5.50
2017,10,29,08,02,5.60
2017,10,29,08,03,5.70
2017,10,29,08,04,5.80
2017,10,29,08,05,6.00
2017,10,29,08,06,6.00
2017,10,29,08,07,6.10
2017,10,29,08,08,6.20
2017,10,29,08,09,6.30
2017,10,29,08,10,6.50
2017,10,29,08,11,6.60
2017,10,29,08,12,6.70
2017,10,29,08,13,6.80
2017,10,29,08,14,6.90
2017,10,29,08,15,7.00
2017,10,29,08,16,7.00
2017,10,29,08,17,7.10
2017,10,29,08,18,7.10
2017,10,29,08,19,7.10
2017,10,29,08,20,7.10
2017,10,29,08,21,7.10
2017,10,29,08,22,7.10
2017,10,29,08,23,7.10
2017,10,29,08,24,7.00
2017,10,29,08,25,7.00
2017,10,29,08,26,6.90
2017,10,29,08,27,6.90
2017,10,29,08,28,6.80
2017,10,29,08,29,6.70
2017,10,29,08,30,6.70
2017,10,29,08,31,6.60
2017,10,29,08,32,6.50
2017,10,29,08,33,6.50
2017,10,29,08,34,6.40
2017,10,29,08,35,6.30
2017,10,29,08,36,6.20
2017,10,29,08,37,6.10
2017,10,29,08,38,6.10
2017,10,29,08,39,6.00
2017,10,29,08,40,5.90
2017,10,29,08,41,5.80
2017,10,29,08,42,5.70
2017,10,29,08,43,5.60
2017,10,29,08,44,5.60
2017,10,29,08,45,5.50
2017,10,29,08,46,5.50
2017,10,29,08,47,5.50
2017,10,29,08,48,5.50
2017,10,29,08,49,5.50
2017,10,29,08,50,5.50
2017,10,29,08,51,5.50
2017,10,29,08,52,5.50
2017,10,29,08,53,5.50
2017,10,29,08,54,5.50
2017,10,29,08,55,5.50
2017,10,29,08,56,5.60
2017,10,29,08,57,5.60
2017,10,29,08,58,5.60
2017,10,29,08,59,5.60
2017,10,29,09,00,5.60
2017,10,29,09,01,5.70
2017,10,29,09,02,5.70
2017,10,29,09,03,5.80
2017,10,29,09,04,5.90
2017,10,29,09,05,6.00
2017,10,29,09,06,6.00
2017,10,29,09,07,6.10
2017,10,29,09,08,6.10
2017,10,29,09,09,6.20
2017,10,29,09,10,6.30
2017,10,29,09,11,6.30
2017,10,29,09,12,6.30
2017,10,29,09,13,6.40
2017,10,29,09,14,6.40
2017,10,29,09,15,6.50
2017,10,29,09,16,6.50
2017,10,29,09,17,6.60
2017,10,29,09,18,6.60
2017,10,29,09,19,6.70
2017,10,29,09,20,6.70
2017,10,29,09,21,6.80
2017,10,29,09,22,6.80
2017,10,29,09,23,6.90
2017,10,29,09,24,6.90
2017,10,29,09,25,7.00
2017,10,29,09,26,7.00
2017,10,29,09,27,7.10
2017,10,29,09,28,7.20
2017,10,29,09,29,7.20
2017,10,29,09,30,7.20
2017,10,29,09,31,7.30
2017,10,29,09,32,7.30
2017,10,29,09,33,7.30
2017,10,29,09,34,7.40
2017,10,29,09,35,7.40
2017,10,29,09,36,7.40
2017,10,29,09,37,7.50
2017,10,29,09,38,7.50
2017,10,29,09,39,7.50
2017,10,29,09,40,7.60
2017,10,29,09,41,7.60
2017,10,29,09,42,7.60
2017,10,29,09,43,7.60
2017,10,29,09,44,7.60
2017,10,29,09,45,7.60
2017,10,29,09,46,7.60
2017,10,29,09,47,7.60
2017,10,29,09,48,7.70
2017,10,29,09,49,7.70
2017,10,29,09,50,7.70
2017,10,29,09,51,7.80
2017,10,29,09,52,7.80
2017,10,29,09,53,7.90
2017,10,29,09,54,7.90
2017,10,29,09,55,8.00
2017,10,29,09,56,8.10
2017,10,29,09,57,8.10
2017,10,29,09,58,8.20
2017,10,29,09,59,8.30
2017,10,29,10,00,8.30
2017,10,29,10,01,8.30
2017,10,29,10,02,8.40
2017,10,29,10,03,8.40
2017,10,29,10,04,8.50
2017,10,29,10,05,8.50
2017,10,29,10,06,8.60
2017,10,29,10,07,8.60
2017,10,29,10,08,8.60
2017,10,29,10,09,8.70
2017,10,29,10,10,8.70
2017,10,29,10,11,8.90
2017,10,29,10,12,9.00
2017,10,29,10,13,9.20
2017,10,29,10,14,9.40
2017,10,29,10,15,9.50
2017,10,29,10,16,9.60
2017,10,29,10,17,9.80
2017,10,29,10,18,9.90
2017,10,29,10,19,10.00
2017,10,29,10,20,10.10
2017,10,29,10,21,10.20
2017,10,29,10,22,10.30
2017,10,29,10,23,10.40
2017,10,29,10,24,10.40
2017,10,29,10,25,10.50
2017,10,29,10,26,10.60
2017,10,29,10,27,10.60
2017,10,29,10,28,10.70
2017,10,29,10,29,10.80
2017,10,29,10,30,10.80
2017,10,29,10,31,10.90
2017,10,29,10,32,10.90
2017,10,29,10,33,11.00
2017,10,29,10,34,11.10
2017,10,29,10,35,11.10
2017,10,29,10,36,11.20
2017,10,29,10,37,11.30
2017,10,29,10,38,11.30
2017,10,29,10,39,11.40
2017,10,29,10,40,11.40
2017,10,29,10,41,11.50
2017,10,29,10,42,11.60
2017,10,29,10,43,11.60
2017,10,29,10,44,11.70
2017,10,29,10,45,11.80
2017,10,29,10,46,11.80
2017,10,29,10,47,11.80
2017,10,29,10,48,11.80
2017,10,29,10,49,11.90
2017,10,29,10,50,11.90
2017,10,29,10,51,12.00
2017,10,29,10,52,12.00
2017,10,29,10,53,12.00
2017,10,29,10,54,12.10
2017,10,29,10,55,12.10
2017,10,29,10,56,12.10
2017,10,29,10,57,12.10
2017,10,29,10,58,12.20
2017,10,29,10,59,12.20
2017,10,29,11,00,12.10
2017,10,29,11,01,12.10
2017,10,29,11,02,12.10
2017,10,29,11,03,12.20
2017,10,29,11,04,12.20
2017,10,29,11,05,12.30
2017,10,29,11,06,12.40
2017,10,29,11,07,12.50
2017,10,29,11,08,12.60
2017,10,29,11,09,12.80
2017,10,29,11,10,12.90
2017,10,29,11,11,13.10
2017,10,29,11,12,13.30
2017,10,29,11,13,13.40
2017,10,29,11,14,13.60
2017,10,29,11,15,13.80
2017,10,29,11,16,14.00
2017,10,29,11,17,14.10
2017,10,29,11,18,14.20
2017,10,29,11,19,14.40
2017,10,29,11,20,14.60
2017,10,29,11,21,14.70
2017,10,29,11,22,15.00
2017,10,29,11,23,15.00
2017,10,29,11,24,15.00
2017,10,29,11,25,15.20
2017,10,29,11,26,15.40
2017,10,29,11,27,15.50
2017,10,29,11,28,15.60
2017,10,29,11,29,15.70
2017,10,29,11,30,15.90
2017,10,29,11,31,16.00
2017,10,29,11,32,16.10
2017,10,29,11,33,16.10
2017,10,29,11,34,16.20
2017,10,29,11,35,16.20
2017,10,29,11,36,16.20
2017,10,29,11,37,16.30
2017,10,29,11,38,16.30
2017,10,29,11,39,16.40
2017,10,29,11,40,16.40
2017,10,29,11,41,16.50
2017,10,29,11,42,16.60
2017,10,29,11,43,16.60
2017,10,29,11,44,16.60
2017,10,29,11,45,16.60
2017,10,29,11,46,16.60
2017,10,29,11,47,16.70
2017,10,29,11,48,16.70
2017,10,29,11,49,16.80
2017,10,29,11,50,16.80
2017,10,29,11,51,16.90
2017,10,29,11,52,16.90
2017,10,29,11,53,17.00
2017,10,29,11,54,17.10
2017,10,29,11,55,17.10
2017,10,29,11,56,17.10
2017,10,29,11,57,17.20
2017,10,29,11,58,17.20
2017,10,29,11,59,17.20
2017,10,29,12,00,17.20
2017,10,29,12,01,17.20
2017,10,29,12,02,17.20
2017,10,29,12,03,17.10
2017,10,29,12,04,17.10
2017,10,29,12,05,17.10
2017,10,29,12,06,17.10
2017,10,29,12,07,17.10
2017,10,29,12,08,17.10
2017,10,29,12,09,17.00
2017,10,29,12,10,17.00
2017,10,29,12,11,17.00
2017,10,29,12,12,17.00
2017,10,29,12,13,17.00
2017,10,29,12,14,17.10
2017,10,29,12,15,17.10
2017,10,29,12,16,17.10
2017,10,29,12,17,17.10
2017,10,29,12,18,17.10
2017,10,29,12,19,17.10
2017,10,29,12,20,17.20
2017,10,29,12,21,17.20
2017,10,29,12,22,17.20
2017,10,29,12,23,17.20
2017,10,29,12,24,17.20
2017,10,29,12,25,17.20
2017,10,29,12,26,17.30
2017,10,29,12,27,17.30
2017,10,29,12,28,17.30
2017,10,29,12,29,17.30
2017,10,29,12,30,17.30
2017,10,29,12,31,17.30
2017,10,29,12,32,17.20
2017,10,29,12,33,17.20
2017,10,29,12,34,17.20
2017,10,29,12,35,17.20
2017,10,29,12,36,17.30
2017,10,29,12,37,17.30
2017,10,29,12,38,17.30
2017,10,29,12,39,17.40
2017,10,29,12,40,17.40
2017,10,29,12,41,17.40
2017,10,29,12,42,17.40
2017,10,29,12,43,17.40
2017,10,29,12,44,17.40
2017,10,29,12,45,17.40
2017,10,29,12,46,17.40
2017,10,29,12,47,17.50
2017,10,29,12,48,17.50
2017,10,29,12,49,17.60
2017,10,29,12,50,17.60
2017,10,29,12,51,17.60
2017,10,29,12,52,17.70
2017,10,29,12,53,17.70
2017,10,29,12,54,17.70
2017,10,29,12,55,17.80
2017,10,29,12,56,17.80
2017,10,29,12,57,17.80
2017,10,29,12,58,17.80
2017,10,29,12,59,17.80
2017,10,29,13,00,17.80
2017,10,29,13,01,17.90
2017,10,29,13,02,17.90
2017,10,29,13,03,17.90
2017,10,29,13,04,17.90
2017,10,29,13,05,18.00
2017,10,29,13,06,18.10
2017,10,29,13,07,18.10
2017,10,29,13,08,18.20
2017,10,29,13,09,18.20
2017,10,29,13,10,18.20
2017,10,29,13,11,18.20
2017,10,29,13,12,18.20
2017,10,29,13,13,18.30
2017,10,29,13,14,18.30
2017,10,29,13,15,18.30
2017,10,29,13,16,18.40
2017,10,29,13,17,18.40
2017,10,29,13,18,18.40
2017,10,29,13,19,18.50
2017,10,29,13,20,18.50
2017,10,29,13,21,18.60
2017,10,29,13,22,18.60
2017,10,29,13,23,18.60
2017,10,29,13,24,18.70
2017,10,29,13,25,18.70
2017,10,29,13,26,18.70
2017,10,29,13,27,18.70
2017,10,29,13,28,18.70
2017,10,29,13,29,18.70
2017,10,29,13,30,18.70
2017,10,29,13,31,18.70
2017,10,29,13,32,18.80
2017,10,29,13,33,18.80
2017,10,29,13,34,18.80
2017,10,29,13,35,18.90
2017,10,29,13,36,18.90
2017,10,29,13,37,19.00
2017,10,29,13,38,19.00
2017,10,29,13,39,19.10
2017,10,29,13,40,19.10
2017,10,29,13,41,19.10
2017,10,29,13,42,19.10
2017,10,29,13,43,19.10
2017,10,29,13,44,19.00
2017,10,29,13,45,19.00
2017,10,29,13,46,18.90
2017,10,29,13,47,18.90
2017,10,29,13,48,18.90
2017,10,29,13,49,18.80
2017,10,29,13,50,18.80
2017,10,29,13,51,18.80
2017,10,29,13,52,18.80
2017,10,29,13,53,18.80
2017,10,29,13,54,18.80
2017,10,29,13,55,18.80
2017,10,29,13,56,18.80
2017,10,29,13,57,18.90
2017,10,29,13,58,18.90
2017,10,29,13,59,18.90
2017,10,29,14,00,18.90
2017,10,29,14,01,18.90
2017,10,29,14,02,18.90
2017,10,29,14,03,18.90
2017,10,29,14,04,18.90
2017,10,29,14,05,18.90
2017,10,29,14,06,18.90
2017,10,29,14,07,18.90
2017,10,29,14,08,18.90
2017,10,29,14,09,18.90
2017,10,29,14,10,18.90
2017,10,29,14,11,18.90
2017,10,29,14,12,18.90
2017,10,29,14,13,18.90
2017,10,29,14,14,18.90
2017,10,29,14,15,18.90
2017,10,29,14,16,19.00
2017,10,29,14,17,19.00
2017,10,29,14,18,19.10
2017,10,29,14,19,19.00
2017,10,29,14,20,19.00
2017,10,29,14,21,19.00
2017,10,29,14,22,19.10
2017,10,29,14,23,19.00
2017,10,29,14,24,19.00
2017,10,29,14,25,18.90
2017,10,29,14,26,18.90
2017,10,29,14,27,18.90
2017,10,29,14,28,18.80
2017,10,29,14,29,18.90
2017,10,29,14,30,18.90
2017,10,29,14,31,18.90
2017,10,29,14,32,18.90
2017,10,29,14,33,18.90
2017,10,29,14,34,19.00
2017,10,29,14,35,19.00
2017,10,29,14,36,19.00
2017,10,29,14,37,19.10
2017,10,29,14,38,19.10
2017,10,29,14,39,19.10
2017,10,29,14,40,19.10
2017,10,29,14,41,19.10
2017,10,29,14,42,19.10
2017,10,29,14,43,19.10
2017,10,29,14,44,19.10
2017,10,29,14,45,19.10
2017,10,29,14,46,19.10
2017,10,29,14,47,19.10
2017,10,29,14,48,19.10
2017,10,29,14,49,19.10
2017,10,29,14,50,19.10
2017,10,29,14,51,19.10
2017,10,29,14,52,19.10
2017,10,29,14,53,19.20
2017,10,29,14,54,19.20
2017,10,29,14,55,19.20
2017,10,29,14,56,19.30
2017,10,29,14,57,19.30
2017,10,29,14,58,19.30
2017,10,29,14,59,19.30
2017,10,29,15,00,19.30
2017,10,29,15,01,19.30
2017,10,29,15,02,19.20
2017,10,29,15,03,19.20
2017,10,29,15,04,19.20
2017,10,29,15,05,19.10
2017,10,29,15,06,19.10
2017,10,29,15,07,19.10
2017,10,29,15,08,19.10
2017,10,29,15,09,19.10
2017,10,29,15,10,19.10
2017,10,29,15,11,19.10
2017,10,29,15,12,19.10
2017,10,29,15,13,19.10
2017,10,29,15,14,19.10
2017,10,29,15,15,19.10
2017,10,29,15,16,19.10
2017,10,29,15,17,19.10
2017,10,29,15,18,19.20
2017,10,29,15,19,19.20
2017,10,29,15,20,19.20
2017,10,29,15,21,19.20
2017,10,29,15,22,19.20
2017,10,29,15,23,19.20
2017,10,29,15,24,19.20
2017,10,29,15,25,19.20
2017,10,29,15,26,19.30
2017,10,29,15,27,19.30
2017,10,29,15,28,19.30
2017,10,29,15,29,19.30
2017,10,29,15,30,19.30
2017,10,29,15,31,19.30
2017,10,29,15,32,19.30
2017,10,29,15,33,19.30
2017,10,29,15,34,19.30
2017,10,29,15,35,19.30
2017,10,29,15,36,19.30
2017,10,29,15,37,19.30
2017,10,29,15,38,19.30
2017,10,29,15,39,19.30
2017,10,29,15,40,19.20
2017,10,29,15,41,19.30
2017,10,29,15,42,19.30
2017,10,29,15,43,19.30
2017,10,29,15,44,19.20
2017,10,29,15,45,19.30
2017,10,29,15,46,19.30
2017,10,29,15,47,19.30
2017,10,29,15,48,19.30
2017,10,29,15,49,19.30
2017,10,29,15,50,19.30
2017,10,29,15,51,19.30
2017,10,29,15,52,19.30
2017,10,29,15,53,19.30
2017,10,29,15,54,19.40
2017,10,29,15,55,19.40
2017,10,29,15,56,19.30
2017,10,29,15,57,19.30
2017,10,29,15,58,19.30
2017,10,29,15,59,19.30
2017,10,29,16,00,19.30
2017,10,29,16,01,19.30
2017,10,29,16,02,19.30
2017,10,29,16,03,19.40
2017,10,29,16,04,19.40
2017,10,29,16,05,19.40
2017,10,29,16,06,19.40
2017,10,29,16,07,19.40
2017,10,29,16,08,19.40
2017,10,29,16,09,19.40
2017,10,29,16,10,19.40
2017,10,29,16,11,19.40
2017,10,29,16,12,19.40
2017,10,29,16,13,19.30
2017,10,29,16,14,19.30
2017,10,29,16,15,19.20
2017,10,29,16,16,19.20
2017,10,29,16,17,19.20
2017,10,29,16,18,19.10
2017,10,29,16,19,19.10
2017,10,29,16,20,19.10
2017,10,29,16,21,19.10
2017,10,29,16,22,19.10
2017,10,29,16,23,19.10
2017,10,29,16,24,19.00
2017,10,29,16,25,19.00
2017,10,29,16,26,19.00
2017,10,29,16,27,19.00
2017,10,29,16,28,18.90
2017,10,29,16,29,18.90
2017,10,29,16,30,18.90
2017,10,29,16,31,18.90
2017,10,29,16,32,18.90
2017,10,29,16,33,18.90
2017,10,29,16,34,18.90
2017,10,29,16,35,18.90
2017,10,29,16,36,18.90
2017,10,29,16,37,18.90
2017,10,29,16,38,18.80
2017,10,29,16,39,18.80
2017,10,29,16,40,18.80
2017,10,29,16,41,18.80
2017,10,29,16,42,18.80
2017,10,29,16,43,18.80
2017,10,29,16,44,18.80
2017,10,29,16,45,18.80
2017,10,29,16,46,18.80
2017,10,29,16,47,18.80
2017,10,29,16,48,18.80
2017,10,29,16,49,18.70
2017,10,29,16,50,18.70
2017,10,29,16,51,18.70
2017,10,29,16,52,18.70
2017,10,29,16,53,18.70
2017,10,29,16,54,18.70
2017,10,29,16,55,18.70
2017,10,29,16,56,18.60
2017,10,29,16,57,18.60
2017,10,29,16,58,18.60
2017,10,29,16,59,18.60
2017,10,29,17,00,18.60
2017,10,29,17,01,18.50
2017,10,29,17,02,18.50
2017,10,29,17,03,18.50
2017,10,29,17,04,18.40
2017,10,29,17,05,18.40
2017,10,29,17,06,18.40
2017,10,29,17,07,18.40
2017,10,29,17,08,18.40
2017,10,29,17,09,18.30
2017,10,29,17,10,18.30
2017,10,29,17,11,18.30
2017,10,29,17,12,18.30
2017,10,29,17,13,18.30
2017,10,29,17,14,18.20
2017,10,29,17,15,18.20
2017,10,29,17,16,18.20
2017,10,29,17,17,18.20
2017,10,29,17,18,18.20
2017,10,29,17,19,18.20
2017,10,29,17,20,18.20
2017,10,29,17,21,18.20
2017,10,29,17,22,18.20
2017,10,29,17,23,18.20
2017,10,29,17,24,18.20
2017,10,29,17,25,18.20
2017,10,29,17,26,18.20
2017,10,29,17,27,18.20
2017,10,29,17,28,18.20
2017,10,29,17,29,18.20
2017,10,29,17,30,18.10
2017,10,29,17,31,18.10
2017,10,29,17,32,18.10
2017,10,29,17,33,18.10
2017,10,29,17,34,18.10
2017,10,29,17,35,18.10
2017,10,29,17,36,18.10
2017,10,29,17,37,18.00
2017,10,29,17,38,18.00
2017,10,29,17,39,18.00
2017,10,29,17,40,18.00
2017,10,29,17,41,17.90
2017,10,29,17,42,17.90
2017,10,29,17,43,17.90
2017,10,29,17,44,17.90
2017,10,29,17,45,17.90
2017,10,29,17,46,17.90